Al Farabi 2 (43805 NORAD) Tracking and Keplerian Element Data

This shows tracking and keplerian element data for the satellite.

Feedback or suggestion? Click here.




ElementValue
Catalog43805
NameAl Farabi 2
Epoch Orbit673
Epoch Day17.79117708
Epoch Year2019
RAAN91.4934
Inclination97.7605
Eccentricity0.0016697
Argument of Perigee114.7298
Mean Anonmoly245.5663
Mean Motion14.95182572
Decay Rate1.43E-06
L11 43805U 18099AZ 19017.79117708 .00000143 00000-0 18297-4 0 9994
L22 43805 97.7605 91.4934 0016697 114.7298 245.5663 14.95182572 6738

Live tracking and technical data element details for Al Farabi 2 (NORAD 43805). Al Farabi 2 can be tracked NOW for your location showing map with azimuth and elevation plus other details from your city location.

Track the satellite on the map from your city or location and see movement details for azimuth, elevation, latitude, longitude, range, height, and movement on the map or in text.







IsCatalogInMostPopularTable: catalog: 43805, numindb: 22
Update: records affected: 1



GetName: 43805 Al Farabi 2

Hit Count: updated at: Wed, 23 Jan 2019 03:19:26 GMT